Location: Cabo di Oristano
(39.8500°N, 8.4333°E)
Time: 17:10:58
(UTC+00:00)

Cosmos 2292 Rocket - Pass Details

Date: 31 January 2023
Orbit: 380 x 1395 km, 83.0° (Epoch: 31 March)

Event Time Altitude Azimuth Distance (km) Brightness Sun altitude
Rises 04:40:25 0° 190° (S) 3,842 7.6 -22.3°
Reaches altitude 10° 04:43:19 10° 192° (SSW) 2,730 6.8 -21.7°
Maximum altitude 04:49:28 72° 277° (W) 833 3.9 -20.6°
Drops below altitude 10° 04:54:05 10° 2° (N) 2,071 6.2 -19.7°
Sets 04:56:03 0° 5° (N) 2,855 7.0 -19.3°
